Garden City, KS

8:57 PM CST on December 07, 2019 (GMT -0600)
Garden City Regional

Weather History for KGCK - November, 2019

Change the Weather History Date:

Wednesday, November 13, 2019

  Actual Average Record
Temperature  
Mean Temperature 42 °F 43 °F  
Max Temperature 64 °F 57 °F 82 °F (1999)
Min Temperature 20 °F 29 °F 3 °F (2014)
Degree Days  
Heating Degree Days 23 22  
Month to date heating degree days 338 250  
Since 1 July heating degree days 866 640  
Cooling Degree Days 0 0  
Month to date cooling degree days 0 0  
Year to date cooling degree days 1424 1298  
Moisture  
Dew Point 22 °F    
Average Humidity 56    
Maximum Humidity 85    
Minimum Humidity 17    
Precipitation  
Precipitation 0.00 in 0.02 in 0.54 in (1972)
Month to date precipitation T 0.27  
Year to date precipitation 12.89 18.67  
Sea Level Pressure  
Sea Level Pressure 30.00 in    
Wind  
Wind Speed 10 mph ()    
Max Wind Speed 29 mph    
Max Gust Speed 38 mph    
Visibility 10.0 miles    
Events      
T = Trace of Precipitation, MM = Missing Value Source: Averaged Metar Reports

Daily Weather History Graph

Daily Weather History Graph

Search for Another Location

Airport or City:

Astronomy

Nov. 13, 2019 Rise Set
Actual Time 7:21 AM CST 5:32 PM CST
Civil Twilight 6:53 AM CST 6:00 PM CST
Nautical Twilight 6:21 AM CST 6:32 PM CST
Astronomical Twilight 5:50 AM CST 7:03 PM CST
Moon 6:37 PM CST (11/13) 8:15 AM CST (11/13)
Length of Visible Light 11h 07m
Length of Day
10h 11m
Full, 99% of the Moon is Illuminated
Nov 13
Full
Nov 19
Last Quarter
Nov 26
New
Dec 4
First Quarter
Dec 11
Full

Hourly Weather History & Observations

Time (CST) Temp. Windchill Dew Point Humidity Pressure Visibility Wind Dir Wind Speed Gust Speed Precip Events Conditions
12:54 AM 26.1 °F 15.6 °F 14.0 °F 60% 29.96 in 10.0 mi South 11.5 mph - N/A   Clear
1:54 AM 24.1 °F 13.7 °F 14.0 °F 65% 29.93 in 10.0 mi South 10.4 mph - N/A   Clear
2:54 AM 25.0 °F 14.2 °F 15.1 °F 66% 29.91 in 10.0 mi South 11.5 mph - N/A   Clear
3:54 AM 23.0 °F 12.4 °F 15.1 °F 72% 29.89 in 10.0 mi SSW 10.4 mph - N/A   Clear
5:54 AM 21.9 °F 11.7 °F 16.0 °F 78% 29.88 in 10.0 mi SW 9.2 mph - N/A   Clear
6:54 AM 21.9 °F 11.7 °F 16.0 °F 78% 29.87 in 10.0 mi SW 9.2 mph - N/A   Clear
7:54 AM 21.9 °F 11.7 °F 16.0 °F 78% 29.91 in 10.0 mi WSW 9.2 mph - N/A   Clear
8:54 AM 30.9 °F 22.8 °F 19.9 °F 64% 29.90 in 10.0 mi WNW 9.2 mph - N/A   Clear
9:54 AM 39.9 °F 33.4 °F 21.9 °F 49% 29.91 in 10.0 mi NNW 10.4 mph - N/A   Clear
10:54 AM 54.0 °F - 21.9 °F 29% 29.92 in 10.0 mi North 18.4 mph 27.6 mph N/A   Clear
11:54 AM 63.0 °F - 17.1 °F 17% 29.91 in 10.0 mi NNE 17.3 mph - N/A   Clear
12:54 PM 64.0 °F - 19.0 °F 18% 29.91 in 10.0 mi North 23.0 mph - N/A   Clear
1:54 PM 59.0 °F - 21.0 °F 23% 29.94 in 10.0 mi NNE 24.2 mph 35.7 mph N/A   Clear
2:54 PM 57.9 °F - 23.0 °F 26% 29.96 in 10.0 mi NE 21.9 mph 31.1 mph N/A   Clear
3:54 PM 57.9 °F - 30.0 °F 35% 29.99 in 10.0 mi NNE 18.4 mph 28.8 mph N/A   Clear
4:54 PM 55.0 °F - 33.1 °F 43% 30.02 in 10.0 mi NE 16.1 mph - N/A   Clear
5:54 PM 48.0 °F - 32.0 °F 54% 30.06 in 10.0 mi NE 6.9 mph - N/A   Clear
6:54 PM 43.0 °F 39.5 °F 28.9 °F 58% 30.11 in 10.0 mi ENE 5.8 mph - N/A   Clear
7:54 PM 39.9 °F 34.5 °F 28.0 °F 63% 30.16 in 10.0 mi ENE 8.1 mph - N/A   Clear
8:54 PM 37.0 °F 30.4 °F 26.1 °F 65% 30.18 in 10.0 mi NE 9.2 mph - N/A   Clear
9:54 PM 32.0 °F 25.6 °F 26.1 °F 79% 30.20 in 10.0 mi NE 6.9 mph - N/A   Partly Cloudy
10:54 PM 32.0 °F - 27.0 °F 82% 30.21 in 10.0 mi Calm Calm - N/A   Mostly Cloudy
11:54 PM 30.9 °F 25.2 °F 27.0 °F 85% 30.21 in 10.0 mi NE 5.8 mph - N/A   Scattered Clouds